This demonstration page uses our WeatherBlox Daily Observations layout. Learn more.

Left ArrowRight Arrow

39.08367, -84.50855

Hourly Observations for July 22, 2020

Temp ( °F °C ) Dew Point ( °F °C ) Humidity (%) Winds ( mph kmh ) Pressure ( in mb ) Visibility ( mi km ) Precip ( " mm )
12:53 am 00:53 Clear 77 25 74 23.3 90 90 N N/A 30.01 1016 9 14 N/A
1:34 am 01:34 Mostly Cloudy with Nearby Thunderstorms 79 26.1 66 18.9 65 65 WNW 21 33 30.03 1017 10 16 N/A
1:49 am 01:49 Cloudy with Light Rain 75 24 66 19 74 74 WNW 15 24 30.04 1017 4 6 0.09 2.29
1:53 am 01:53 Cloudy with Heavy Rain 74 23.3 66 18.9 76 76 WNW 14 22 30.04 1017 3 4 0.14 3.56
1:59 am 01:59 Cloudy with Nearby Thunderstorms 73 22.8 66 18.9 79 79 NW 10 17 30.04 1017 3 5 0.01 0.25
2:16 am 02:16 Cloudy with Light Rain 72 22.2 67 19.4 84 84 N N/A 30.03 1017 7 11 0.03 0.76
2:23 am 02:23 Mostly Cloudy with Nearby Thunderstorms 71 21.7 67 19.4 87 87 NE 3 6 30.03 1017 10 16 0.03 0.76
2:38 am 02:38 Mostly Cloudy with Light Rain 71 21.7 68 20 90 90 SW 6 9 30.04 1017 10 16 0.03 0.76
2:53 am 02:53 Mostly Cloudy with Light Rain 71 21.7 68 20 90 90 S 3 6 30.04 1017 9 14 0.05 1.27
3:53 am 03:53 Mostly Cloudy with Light Rain 71 21.7 68 20 90 90 VRB 7 11 30.03 1017 10 16 0.04 1.02
4:53 am 04:53 Mostly Clear with Light Rain 70 21.1 68 20 93 93 N N/A 30.00 1016 10 16 0.00 0.00
5:53 am 05:53 Mostly Cloudy 71 21.7 69 20.6 94 94 N N/A 30.02 1017 9 14 0.00 0.00
6:53 am 06:53 Mostly Cloudy with Light Rain 72 22.2 70 21.1 94 94 SE 3 6 30.06 1018 8 13 0.00 0.00
7:53 am 07:53 Cloudy 72 22.2 70 21.1 94 94 S 9 15 30.07 1018 10 16 0.01 0.25
8:08 am 08:08 Cloudy with Heavy Rain 72 22.2 70 21.1 94 94 S 7 11 30.07 1018 2 3 0.05 1.27
8:16 am 08:16 Mostly Cloudy with Rain 72 22.2 70 21.1 94 94 S 6 9 30.07 1018 4 6 0.06 1.52
8:53 am 08:53 Cloudy with Light Rain 71 21.7 69 20.6 94 94 ESE 8 13 30.07 1018 2 3 0.19 4.83
9:04 am 09:04 Mostly Cloudy with Light Rain 71 21.7 69 20.6 94 94 N N/A 30.07 1018 6 10 0.01 0.25
9:53 am 09:53 Sunny 73 22.8 70 21.1 90 90 N N/A 30.06 1018 10 16 0.02 0.51
10:53 am 10:53 Mostly Cloudy 75 23.9 71 21.7 88 88 S 8 13 30.07 1018 10 16 N/A
11:53 am 11:53 Partly Cloudy 78 25.6 71 21.7 79 79 S 9 15 30.07 1018 10 16 N/A
12:42 pm 12:42 Mostly Cloudy with Thunderstorms 78 25.6 71 21.7 79 79 SSW 7 11 30.07 1018 10 16 N/A
12:53 pm 12:53 Cloudy with Thunderstorms 78 25.6 71 21.7 79 79 S 5 7 30.07 1018 10 16 0.00 0.00
1:14 pm 13:14 Cloudy with Strong Thunderstorms 74 23.3 70 21.1 88 88 W 20 31 30.12 1020 1 1 0.18 4.57
1:19 pm 13:19 Cloudy with Strong Thunderstorms 70 21.1 67 19.4 90 90 WNW 14 22 30.11 1020 0 0 0.56 14.22
1:28 pm 13:28 Cloudy with Strong Thunderstorms 71 21.7 66 18.9 84 84 WSW 8 13 30.09 1019 1 1 0.72 18.29
1:33 pm 13:33 Cloudy with Thunderstorms 71 21.7 68 20 90 90 WSW 5 7 30.08 1018 2 3 0.73 18.54
1:39 pm 13:39 Cloudy with Thunderstorms 71 21.7 70 21.1 96 96 N N/A 30.08 1018 4 6 0.73 18.54
1:53 pm 13:53 Mostly Cloudy with Thunderstorms 71 21.7 70 21.1 96 96 SE 3 6 30.07 1018 10 16 0.74 18.80
2:53 pm 14:53 Mostly Cloudy with Thunderstorms 70 21.1 70 21.1 100 100 VRB 3 6 30.06 1018 10 16 0.10 2.54
3:32 pm 15:32 Mostly Sunny 71 21.7 71 21.7 100 100 SSW 3 6 30.04 1017 10 16 0.00 0.00
3:53 pm 15:53 Mostly Cloudy 71 21.7 71 21.7 100 100 SSW 3 6 30.03 1017 10 16 0.00 0.00
4:29 pm 16:29 Mostly Sunny 74 23.3 71 21.7 91 91 N N/A 30.00 1016 10 16 N/A
4:53 pm 16:53 Partly Cloudy 77 25 72 22.2 85 85 S 8 13 30.01 1016 10 16 N/A
5:53 pm 17:53 Mostly Sunny 78 25.6 72 22.2 82 82 S 3 6 29.98 1015 10 16 N/A
6:53 pm 18:53 Sunny 79 26.1 73 22.8 82 82 S 5 7 29.99 1016 10 16 N/A
7:53 pm 19:53 Sunny 78 25.6 73 22.8 85 85 N N/A 30.00 1016 10 16 N/A
8:53 pm 20:53 Sunny 76 24.4 72 22.2 88 88 SW 3 6 30.00 1016 10 16 N/A
9:53 pm 21:53 Clear 76 24.4 72 22.2 88 88 W 3 6 30.01 1016 10 16 N/A
10:53 pm 22:53 Mostly Cloudy 76 24.4 73 22.8 91 91 S 3 6 30.04 1017 10 16 N/A
11:53 pm 23:53 Partly Cloudy 75 23.9 72 22.2 90 90 SW 5 7 30.04 1017 10 16 N/A

Powered by AerisWeather